Tiempo atmosférico en la estación meteorológica de San Bartolome Tirajana, Cuevas del Pinar, Las Palmas (1220 m.)



Fecha
DESCASC
Temp. máxima en grados centígrados (hora)
DESCASC
Temp. mínima en grados centígrados (hora)
DESCASC
Temp. media en grados centígrados
DESCASC
Racha de viento máxima en m/sg (hora)
DESCASC
Velocidad máxima media en intervalos de 10 minutos(hora)
DESCASC
Precipitaciones diarias en mm
DESCASC
Precipitaciones de 00:00 a 06:00 en mm
DESCASC
Precipitaciones de 06:00 a 12:00 en mm
DESCASC
Precipitaciones de 12:00 a 18:00 en mm
DESCASC
Precipitaciones de 18:00 a 24:00 en mm
DESCASC
27-01-2020 13.4 (14:20) 5.5 (06:40) 9.4 7.78 (23:40) 3.33 (23:30) 0 0 0 0 0
26-01-2020 12.3 (15:10) 5.1 (07:40) 8.7 5 (13:00) 2.5 (13:00) 0 0 0 0 0
25-01-2020 12 (12:00) 6 (00:00) 9 6.94 (03:20) 3.06 (15:40) 0 0 0 0 0
24-01-2020 11.4 (11:50) 5.6 (00:00) 8.5 6.11 (20:40) 2.78 (20:40) 0 0 0 0 0
23-01-2020 11.4 (14:40) 4.9 (00:00) 8.1 6.11 (15:20) 3.06 (15:00) 0 0 0 0 0
22-01-2020 10.4 (14:10) 4.6 (00:00) 7.5 5.83 (12:40) 3.06 (13:40) 0 0 0 0 0
21-01-2020 9.1 (11:30) 5.4 (00:00) 7.3 11.67 (05:40) 4.44 (08:50) 0 0 0 0 0
20-01-2020 15 (14:00) 6.7 (00:00) 10.8 7.5 (21:40) 3.89 (20:30) 0 0 0 0 0
19-01-2020 18.8 (14:00) 11.5 (00:00) 15.1 8.61 (02:20) 3.89 (01:00) 0 0 0 0 0
18-01-2020 16.4 (14:50) 10 (00:00) 13.2 11.67 (07:40) 5.28 (07:40) 0 0 0 0 0
17-01-2020 14.5 (18:10) 8.9 (00:00) 11.7 8.89 (11:10) 4.44 (09:50) 0 0 0 0 0
16-01-2020 13.3 (13:10) 7.2 (00:00) 10.3 5.83 (23:00) 4.17 (23:40) 0 0 0 0 0
15-01-2020 12.3 (14:40) 6.8 (00:00) 9.6 7.5 (10:30) 3.33 (13:30) 0 0 0 0 0
14-01-2020 12.2 (15:10) 7.2 (00:00) 9.7 7.22 (13:20) 3.61 (13:20) 0 0 0 0 0
13-01-2020 13 (14:20) 8.2 (00:00) 10.6 10.56 (01:10) 4.17 (02:50) 0 0 0 0 0
12-01-2020 12.3 (12:10) 6 (00:00) 9.2 10 (21:40) 3.61 (14:20) 0 0 0 0 0
11-01-2020 13.9 (13:20) 6.9 (00:00) 10.4 4.44 (16:30) 2.5 (16:30) 0 0 0 0 0
10-01-2020 15.7 (12:40) 8.8 (00:00) 12.3 14.72 (03:00) 5.83 (06:50) 0 0 0 0 0
09-01-2020 14.5 (15:50) 6 (00:00) 10.3 17.5 (23:00) 6.39 (23:10) 0 0 0 0 0
08-01-2020 12.5 (16:50) 7.1 (00:00) 9.8 11.94 (23:10) 5.56 (23:20) 0 0 0 0 0
07-01-2020 11.6 (14:10) 7.4 (00:00) 9.5 11.39 (00:50) 4.72 (09:30) 0.2 0.2 0 0 0
06-01-2020 13.4 (14:00) 6.7 (00:00) 10 13.61 (18:00) 5.56 (06:50) 0 0 0 0 0
05-01-2020 15.1 (14:20) 7.6 (00:00) 11.4 4.44 (15:00) 2.5 (15:00) 0 0 0 0 0
04-01-2020 13.2 (13:10) 8.3 (00:00) 10.8 9.17 (01:20) 4.72 (08:30) 0 0 0 0 0
03-01-2020 11 (15:10) 6.3 (00:00) 8.7 11.94 (05:00) 5.28 (11:50) 0 0 0 0 0
02-01-2020 11.3 (14:40) 6.3 (00:00) 8.8 13.33 (08:50) 5.28 (09:00) 0 0 0 0 0
01-01-2020 12.3 (17:40) 7.6 (00:00) 10 11.67 (02:50) 5 (19:50) 0 0 0 0 0
31-12-2019 15.7 (12:10) 10 (00:00) 12.8 7.78 (22:10) 4.17 (20:00) 0 0 0 0 0
30-12-2019 -- (--) -- (--) -- -- (--) -- (--) -- 0 0 0 --

Gráficas

Temp. máximas Temp. mínimas Temp. medias Precipitaciones Rachas de viento máximas Velocidades máximas media en intervalos de 10 minutos

Datos horarios

Fecha y hora oficial Temperatura (ºC) Velocidad del viento (km/h) Dirección del viento Racha (km/h) Dirección de racha Precipitación (mm) Presión (hPa) Tendencia (hPa) Humedad (%)
2020-01-28 23:00:00 13.5 14 Este 20 Este 0 -- -- 17
2020-01-28 22:00:00 12.7 10 Este 21 Este 0 -- -- 22
2020-01-28 21:00:00 12.8 10 Este 24 Este 0 -- -- 23
2020-01-28 20:00:00 13 12 Este 21 Este 0 -- -- 25
2020-01-28 19:00:00 13.6 9 Nordeste 18 Este 0 -- -- 37
2020-01-28 18:00:00 15.2 9 Este 15 Este 0 -- -- 35
2020-01-28 17:00:00 16.7 6 Este 14 Nordeste 0 -- -- 32
2020-01-28 16:00:00 16.7 8 Este 17 Nordeste 0 -- -- 32
2020-01-28 15:00:00 17.5 7 Este 16 Nordeste 0 -- -- 31
2020-01-28 14:00:00 16.9 7 Nordeste 19 Nordeste 0 -- -- 33
2020-01-28 13:00:00 16.6 6 Nordeste 15 Norte 0 -- -- 31
2020-01-28 12:00:00 16.3 6 Nordeste 15 Este 0 -- -- 15
2020-01-28 11:00:00 15.2 6 Este 17 Este 0 -- -- 13
2020-01-28 10:00:00 12.2 5 Este 16 Este 0 -- -- 32
2020-01-28 09:00:00 11.4 11 Este 19 Este 0 -- -- 31
2020-01-28 08:00:00 10.6 8 Sudeste 24 Este 0 -- -- 39
2020-01-28 07:00:00 10.8 8 Sudeste 21 Este 0 -- -- 36
2020-01-28 06:00:00 11.8 5 Sur 18 Sudeste 0 -- -- 24
2020-01-28 05:00:00 12 9 Sur 20 Sur 0 -- -- 23
2020-01-28 04:00:00 12.1 9 Sur 19 Sur 0 -- -- 21
2020-01-28 03:00:00 11.6 8 Sur 20 Este 0 -- -- 24
2020-01-28 02:00:00 11.7 8 Sudeste 23 Este 0 -- -- 18
2020-01-28 01:00:00 11.9 7 Sudeste 29 Nordeste 0 -- -- 18
2020-01-28 00:00:00 12 9 Nordeste 28 Este 0 -- -- 19
2020-01-27 23:00:00 11.9 7 Este 16 Este 0 -- -- 17
2020-01-27 22:00:00 11.2 7 Este 21 Nordeste 0 -- -- 23
2020-01-27 21:00:00 9.2 5 Nordeste 18 Este 0 -- -- 51
2020-01-27 20:00:00 9 8 Nordeste 15 Este 0 -- -- 84
2020-01-27 19:00:00 9.4 6 Norte 10 Norte 0 -- -- 90
2020-01-27 18:00:00 11.1 8 Nordeste 14 Nordeste 0 -- -- 83
2020-01-27 17:00:00 12.8 8 Este 15 Este 0 -- -- 76
2020-01-27 16:00:00 12.8 6 Nordeste 17 Nordeste 0 -- -- 78
2020-01-27 15:00:00 12.6 8 Nordeste 18 Nordeste 0 -- -- 78
2020-01-27 14:00:00 13.3 9 Nordeste 19 Nordeste 0 -- -- 70
2020-01-27 13:00:00 12.9 8 Nordeste 18 Nordeste 0 -- -- 66
2020-01-27 12:00:00 11.6 8 Nordeste 14 Nordeste 0 -- -- 71
2020-01-27 11:00:00 10.3 7 Nordeste 12 Nordeste 0 -- -- 73
2020-01-27 10:00:00 7.1 3 Sur 6 Sudeste 0 -- -- 77
2020-01-27 09:00:00 6.3 3 Sudeste 13 Nordeste 0 -- -- 82
2020-01-27 08:00:00 5.9 4 Este 9 Este 0 -- -- 87
2020-01-27 07:00:00 5.7 4 Sudeste 9 Sur 0 -- -- 93
2020-01-27 06:00:00 5.6 5 Sur 9 Sur 0 -- -- 88
2020-01-27 05:00:00 6.1 4 Sudeste 9 Sudoeste 0 -- -- 93
2020-01-27 04:00:00 6.1 5 Sur 8 Sur 0 -- -- 94
2020-01-27 03:00:00 6.2 3 Sur 6 Sur 0 -- -- 92
2020-01-27 02:00:00 6.5 2 Sur 7 Sudeste 0 -- -- 90
2020-01-27 01:00:00 6.5 4 Este 8 Nordeste 0 -- -- 88
2020-01-27 00:00:00 6.9 4 Este 8 Sudoeste 0 -- -- 90
2020-01-26 23:00:00 7.6 4 Sur 9 Sur 0 -- -- 91
2020-01-26 22:00:00 7.8 0 Calma 7 Este 0 -- -- 90
2020-01-26 21:00:00 8.1 3 Sudoeste 9 Este 0 -- -- 92
2020-01-26 20:00:00 8.3 5 Nordeste 8 Nordeste 0 -- -- 89
2020-01-26 19:00:00 9.4 3 Norte 8 Noroeste 0 -- -- 88
2020-01-26 18:00:00 10.2 4 Noroeste 10 Sudoeste 0 -- -- 81
2020-01-26 17:00:00 10.3 6 Sudoeste 14 Noroeste 0 -- -- 79
2020-01-26 16:00:00 11.1 6 Oeste 15 Noroeste 0 -- -- 77
2020-01-26 15:00:00 12.2 7 Oeste 16 Oeste 0 -- -- 71
2020-01-26 14:00:00 11.9 5 Noroeste 15 Oeste 0 -- -- 71
2020-01-26 13:00:00 11.6 9 Sudoeste 18 Sudoeste 0 -- -- 66
2020-01-26 12:00:00 11 8 Sudoeste 13 Sur 0 -- -- 62
2020-01-26 11:00:00 9.7 3 Sudoeste 7 Sudeste 0 -- -- 71
2020-01-26 10:00:00 6.2 4 Sudeste 6 Sur 0 -- -- 84
2020-01-26 09:00:00 5.7 4 Sur 6 Sudeste 0 -- -- 88
2020-01-26 08:00:00 5.2 4 Sur 8 Sur 0 -- -- 90
2020-01-26 07:00:00 5.7 0 Calma 5 Sur 0 -- -- 85
2020-01-26 06:00:00 5.6 4 Sur 9 Sur 0 -- -- 82
2020-01-26 05:00:00 5.9 2 Este 5 Nordeste 0 -- -- 83
2020-01-26 04:00:00 5.9 2 Sudeste 6 Sudeste 0 -- -- 81
2020-01-26 03:00:00 6.3 5 Este 7 Este 0 -- -- 82
2020-01-26 02:00:00 6.1 3 Sudeste 7 Sudeste 0 -- -- 83
2020-01-26 01:00:00 6.2 4 Sudeste 6 Sudeste 0 -- -- 83
2020-01-26 00:00:00 6.6 5 Este 10 Sudeste 0 -- -- 86
2020-01-25 23:00:00 6.5 0 Calma 8 Sur 0 -- -- 88
2020-01-25 22:00:00 6.9 4 Sudeste 15 Nordeste 0 -- -- 87
2020-01-25 21:00:00 8.1 9 Norte 17 Nordeste 0 -- -- 75
2020-01-25 20:00:00 8.4 4 Oeste 15 Oeste 0 -- -- 76
2020-01-25 19:00:00 8.7 7 Sudoeste 17 Sudoeste 0 -- -- 89
2020-01-25 18:00:00 9.3 9 Sudoeste 20 Oeste 0 -- -- 86
2020-01-25 17:00:00 10.6 9 Sudoeste 18 Sur 0 -- -- 82
2020-01-25 16:00:00 10.3 10 Sudoeste 17 Sudoeste 0 -- -- 83
2020-01-25 15:00:00 10.8 5 Oeste 17 Sudoeste 0 -- -- 79
2020-01-25 14:00:00 11.2 9 Oeste 18 Sudoeste 0 -- -- 77
2020-01-25 13:00:00 11.3 3 Norte 10 Noroeste 0 -- -- 69
2020-01-25 12:00:00 12 5 Oeste 12 Sur 0 -- -- 59
2020-01-25 11:00:00 10.8 0 Calma 6 Sudeste 0 -- -- 58
2020-01-25 10:00:00 7.1 4 Sudeste 7 Sudeste 0 -- -- 65
2020-01-25 09:00:00 6.8 2 Este 12 Este 0 -- -- 68
2020-01-25 08:00:00 6.7 4 Este 14 Nordeste 0 -- -- 69
2020-01-25 07:00:00 6.6 4 Nordeste 9 Nordeste 0 -- -- 71
2020-01-25 06:00:00 6.5 6 Este 9 Nordeste 0 -- -- 65
2020-01-25 05:00:00 6.6 0 Calma 9 Este 0 -- -- 64
2020-01-25 04:00:00 6.5 6 Este 25 Nordeste 0 -- -- 78
2020-01-25 03:00:00 7.6 6 Norte 14 Nordeste 0 -- -- 60
2020-01-25 02:00:00 6.8 5 Este 9 Este 0 -- -- 67
2020-01-25 01:00:00 7.1 5 Este 11 Este 0 -- -- 72
2020-01-25 00:00:00 6.9 6 Este 17 Sudeste 0 -- -- 83
2020-01-24 23:00:00 7.5 5 Este 17 Oeste 0 -- -- 70
2020-01-24 22:00:00 8 4 Noroeste 16 Nordeste 0 -- -- 69
2020-01-24 21:00:00 7.6 4 Nordeste 22 Noroeste 0 -- -- 76
2020-01-24 20:00:00 7.3 6 Sur 9 Sur 0 -- -- 85
2020-01-24 19:00:00 8.4 0 Calma 11 Sudoeste 0 -- -- 82
2020-01-24 18:00:00 9.5 4 Oeste 13 Sudoeste 0 -- -- 83
2020-01-24 17:00:00 9.2 4 Sudoeste 13 Nordeste 0 -- -- 86
2020-01-24 16:00:00 10.3 5 Sudoeste 12 Sudoeste 0 -- -- 80
2020-01-24 15:00:00 9.4 6 Nordeste 14 Este 0 -- -- 85
2020-01-24 14:00:00 10.2 4 Noroeste 14 Este 0 -- -- 79
2020-01-24 13:00:00 10.5 4 Norte 15 Este 0 -- -- 67
2020-01-24 12:00:00 11.3 5 Noroeste 14 Oeste 0 -- -- 53
2020-01-24 11:00:00 10.3 2 Nordeste 6 Sudeste 0 -- -- 54
2020-01-24 10:00:00 7.1 0 Calma 6 Sudeste 0 -- -- 58
2020-01-24 09:00:00 6.5 4 Nordeste 9 Nordeste 0 -- -- 59
2020-01-24 08:00:00 6.3 8 Nordeste 10 Este 0 -- -- 57
2020-01-24 07:00:00 6.1 5 Este 9 Nordeste 0 -- -- 63
2020-01-24 06:00:00 6.3 2 Sudeste 8 Este 0 -- -- 57
2020-01-24 05:00:00 6.1 4 Este 7 Este 0 -- -- 67
2020-01-24 04:00:00 6 0 Calma 6 Sudeste 0 -- -- 67
2020-01-24 03:00:00 6 3 Este 6 Nordeste 0 -- -- 68
2020-01-24 02:00:00 5.9 5 Nordeste 6 Nordeste 0 -- -- 81
2020-01-24 01:00:00 6.6 4 Este 7 Sudeste 0 -- -- 69
2020-01-24 00:00:00 6.4 3 Este 5 Sudeste 0 -- -- 78
2020-01-23 23:00:00 6.5 5 Sudeste 11 Este 0 -- -- 86
2020-01-23 22:00:00 6.5 6 Este 10 Este 0 -- -- 93
2020-01-23 21:00:00 6.9 6 Este 10 Este 0 -- -- 95
2020-01-23 20:00:00 7.9 0 Calma 6 Este 0 -- -- 92
2020-01-23 19:00:00 8.2 4 Este 13 Sudoeste 0 -- -- 92
2020-01-23 18:00:00 9.3 3 Sudoeste 13 Oeste 0 -- -- 82
2020-01-23 17:00:00 9.5 6 Nordeste 11 Nordeste 0 -- -- 86
2020-01-23 16:00:00 9 4 Sudoeste 22 Sudoeste 0 -- -- 85
2020-01-23 15:00:00 10.5 11 Oeste 21 Norte 0 -- -- 75
2020-01-23 14:00:00 10.4 5 Oeste 17 Norte 0 -- -- 71
2020-01-23 13:00:00 9.5 7 Norte 19 Sur 0 -- -- 69
2020-01-23 12:00:00 9.9 6 Sudoeste 15 Sudoeste 0 -- -- 62
2020-01-23 11:00:00 10.4 0 Calma 7 Sudeste 0 -- -- 61
2020-01-23 10:00:00 7.2 2 Sudeste 10 Este 0 -- -- 70
2020-01-23 09:00:00 7 5 Nordeste 9 Nordeste 0 -- -- 70
2020-01-23 08:00:00 6.4 3 Sudeste 8 Sur 0 -- -- 74
2020-01-23 07:00:00 5.5 6 Sur 13 Sur 0 -- -- 75
2020-01-23 06:00:00 5 7 Sur 11 Sur 0 -- -- 86
2020-01-23 05:00:00 5.5 5 Sur 11 Sur 0 -- -- 77
2020-01-23 04:00:00 4.9 7 Sur 12 Sudoeste 0 -- -- 91
2020-01-23 03:00:00 5.1 6 Sur 12 Sur 0 -- -- 82
2020-01-23 02:00:00 6 5 Sur 11 Sudoeste 0 -- -- 72
2020-01-23 01:00:00 6 6 Sur 9 Sur 0 -- -- 72
2020-01-23 00:00:00 5.8 4 Sur 10 Sudoeste 0 -- -- 72
2020-01-22 23:00:00 5.8 6 Sur 10 Sur 0 -- -- 72
2020-01-22 22:00:00 5.5 5 Sur 10 Sur 0 -- -- 87
2020-01-22 21:00:00 6.3 3 Oeste 9 Sudoeste 0 -- -- 90
2020-01-22 20:00:00 6 5 Sur 11 Sur 0 -- -- 81
2020-01-22 19:00:00 7.4 5 Oeste 10 Sudoeste 0 -- -- 79
2020-01-22 18:00:00 8.4 6 Oeste 13 Sudoeste 0 -- -- 67
2020-01-22 17:00:00 8.4 8 Nordeste 14 Oeste 0 -- -- 78
2020-01-22 16:00:00 9.8 6 Oeste 15 Noroeste 0 -- -- 65
2020-01-22 15:00:00 9.4 9 Sudoeste 17 Oeste 0 -- -- 72
2020-01-22 14:00:00 9.7 10 Sudoeste 19 Sudoeste 0 -- -- 72
2020-01-22 13:00:00 9.9 10 Sudoeste 21 Noroeste 0 -- -- 69
2020-01-22 12:00:00 9.6 5 Oeste 10 Oeste 0 -- -- 61
2020-01-22 11:00:00 8.4 0 Calma 11 Sudoeste 0 -- -- 66
2020-01-22 10:00:00 7.3 7 Sudoeste 12 Sudoeste 0 -- -- 75
2020-01-22 09:00:00 5.3 5 Este 8 Este 0 -- -- 73
2020-01-22 08:00:00 5.1 4 Este 9 Sur 0 -- -- 67
2020-01-22 07:00:00 4.9 4 Sudeste 13 Sudeste 0 -- -- 72
2020-01-22 06:00:00 4.8 6 Nordeste 8 Nordeste 0 -- -- 76
2020-01-22 05:00:00 4.7 0 Calma 10 Sudeste 0 -- -- 73
2020-01-22 04:00:00 4.7 5 Este 8 Nordeste 0 -- -- 80
2020-01-22 03:00:00 4.7 3 Sudeste 7 Sudeste 0 -- -- 82
2020-01-22 02:00:00 4.7 4 Sur 7 Sur 0 -- -- 86
2020-01-22 01:00:00 5 5 Este 11 Este 0 -- -- 89
2020-01-22 00:00:00 5.5 8 Este 11 Nordeste 0 -- -- 91
2020-01-21 23:00:00 5.9 3 Sudeste 22 Norte 0 -- -- 79
2020-01-21 22:00:00 6.5 5 Nordeste 22 Nordeste 0 -- -- 76
2020-01-21 21:00:00 6.8 3 Sur 12 Nordeste 0 -- -- 84
2020-01-21 20:00:00 7 6 Oeste 14 Sur 0 -- -- 83
2020-01-21 19:00:00 7.2 8 Sudoeste 13 Oeste 0 -- -- 84
2020-01-21 18:00:00 7.8 5 Sudoeste 14 Norte 0 -- -- 80
2020-01-21 17:00:00 8.6 8 Noroeste 16 Oeste 0 -- -- 70
2020-01-21 16:00:00 9 6 Oeste 19 Oeste 0 -- -- 65
2020-01-21 15:00:00 8.9 6 Oeste 19 Noroeste 0 -- -- 64
2020-01-21 14:00:00 8.5 12 Noroeste 32 Noroeste 0 -- -- 64
2020-01-21 13:00:00 7.9 10 Noroeste 28 Norte 0 -- -- 70
2020-01-21 12:00:00 8.6 9 Oeste 22 Oeste 0 -- -- 75
2020-01-21 11:00:00 8.1 8 Oeste 33 Noroeste 0 -- -- 70
2020-01-21 10:00:00 6.9 11 Noroeste 38 Nordeste 0 -- -- 72
2020-01-21 09:00:00 6.5 14 Noroeste 36 Oeste 0 -- -- 72
2020-01-21 08:00:00 5.8 8 Nordeste 21 Noroeste 0 -- -- 76
2020-01-21 07:00:00 6 6 Nordeste 22 Nordeste 0 -- -- 79
2020-01-21 06:00:00 5.8 11 Norte 42 Noroeste 0 -- -- 73
2020-01-21 05:00:00 6.1 11 Norte 29 Oeste 0 -- -- 77
2020-01-21 04:00:00 6.1 4 Sudeste 17 Nordeste 0 -- -- 79
2020-01-21 03:00:00 5.9 4 Este 9 Este 0 -- -- 84
2020-01-21 02:00:00 6.4 0 Calma 12 Sudeste 0 -- -- 84
2020-01-21 01:00:00 6.4 3 Sudeste 9 Sudeste 0 -- -- 86
2020-01-21 00:00:00 7.1 5 Este 20 Nordeste 0 -- -- 77
2020-01-20 23:00:00 6.8 3 Sudeste 26 Nordeste 0 -- -- 77
2020-01-20 22:00:00 7.9 9 Nordeste 27 Nordeste 0 -- -- 69
2020-01-20 21:00:00 8 7 Nordeste 25 Norte 0 -- -- 68
2020-01-20 20:00:00 8.2 9 Nordeste 22 Nordeste 0 -- -- 68
2020-01-20 19:00:00 9.3 7 Nordeste 19 Este 0 -- -- 68
2020-01-20 18:00:00 12.1 7 Sudoeste 13 Sudoeste 0 -- -- 70
2020-01-20 17:00:00 13.2 6 Oeste 18 Sudoeste 0 -- -- 65
2020-01-20 16:00:00 14 11 Sudoeste 22 Oeste 0 -- -- 63
2020-01-20 15:00:00 14.2 10 Sudoeste 18 Oeste 0 -- -- 61
2020-01-20 14:00:00 15 7 Oeste 15 Sudoeste 0 -- -- 59
2020-01-20 13:00:00 13.4 8 Sudoeste 15 Oeste 0 -- -- 61
2020-01-20 12:00:00 13.5 6 Sudoeste 11 Oeste 0 -- -- 57
2020-01-20 11:00:00 11.5 0 Calma 6 Sudoeste 0 -- -- 75
2020-01-20 10:00:00 8.3 0 Calma 9 Sudoeste 0 -- -- 85
2020-01-20 09:00:00 7.6 5 Oeste 13 Oeste 0 -- -- 89
2020-01-20 08:00:00 7.1 0 Calma 9 Sudeste 0 -- -- 77
2020-01-20 07:00:00 7.8 5 Este 15 Este 0 -- -- 67
2020-01-20 06:00:00 9 0 Calma 15 Este 0 -- -- 51
2020-01-20 05:00:00 12.2 4 Este 11 Nordeste 0 -- -- 35
2020-01-20 04:00:00 12.7 0 Calma 11 Nordeste 0 -- -- 30
2020-01-20 03:00:00 12 0 Calma 9 Sudeste 0 -- -- 41
2020-01-20 02:00:00 12.1 0 Calma 12 Sudoeste 0 -- -- 45
2020-01-20 01:00:00 11.7 0 Calma 13 Sudoeste 0 -- -- 46
2020-01-20 00:00:00 12.1 6 Sur 12 Sur 0 -- -- 43
2020-01-19 23:00:00 12.2 0 Calma 13 Sudoeste 0 -- -- 46
2020-01-19 22:00:00 12.3 5 Sur 9 Sur 0 -- -- 43
2020-01-19 21:00:00 11.9 4 Sudoeste 8 Sur 0 -- -- 58
2020-01-19 20:00:00 12.5 2 Sudeste 6 Este 0 -- -- 46
2020-01-19 19:00:00 13.1 3 Sudeste 14 Nordeste 0 -- -- 62
2020-01-19 18:00:00 14.5 0 Calma 12 Nordeste 0 -- -- 54
2020-01-19 17:00:00 16.2 7 Nordeste 15 Este 0 -- -- 50
2020-01-19 16:00:00 16.5 8 Nordeste 19 Norte 0 -- -- 50
2020-01-19 15:00:00 18.4 5 Este 19 Nordeste 0 -- -- 38
2020-01-19 14:00:00 18.8 5 Sur 27 Este 0 -- -- 24
2020-01-19 13:00:00 18.5 6 Este 18 Este 0 -- -- 21
2020-01-19 12:00:00 17.5 4 Nordeste 16 Este 0 -- -- 17
2020-01-19 11:00:00 15.3 9 Este 18 Este 0 -- -- 20
2020-01-19 10:00:00 13.7 5 Nordeste 12 Este 0 -- -- 17
2020-01-19 09:00:00 13.4 5 Sudeste 18 Este 0 -- -- 14
2020-01-19 08:00:00 12.1 10 Nordeste 19 Este 0 -- -- 17
2020-01-19 07:00:00 11.5 10 Nordeste 19 Este 0 -- -- 19
2020-01-19 06:00:00 11.8 9 Este 19 Nordeste 0 -- -- 18
2020-01-19 05:00:00 12.3 10 Nordeste 19 Nordeste 0 -- -- 17
2020-01-19 04:00:00 12.1 12 Este 19 Este 0 -- -- 18
2020-01-19 03:00:00 12.3 12 Nordeste 31 Nordeste 0 -- -- 19
2020-01-19 02:00:00 12.1 9 Este 31 Nordeste 0 -- -- 19
2020-01-19 01:00:00 12.8 14 Nordeste 30 Este 0 -- -- 16
2020-01-19 00:00:00 13.9 12 Nordeste 27 Nordeste 0 -- -- 7
2020-01-18 23:00:00 14.4 8 Nordeste 22 Sudeste 0 -- -- 7
2020-01-18 22:00:00 13.9 8 Sudeste 24 Este 0 -- -- 9
2020-01-18 21:00:00 13.7 9 Este 26 Este 0 -- -- 9
2020-01-18 20:00:00 13.8 9 Este 25 Nordeste 0 -- -- 13
2020-01-18 19:00:00 13.3 6 Este 21 Nordeste 0 -- -- 15
2020-01-18 18:00:00 14.7 6 Nordeste 18 Nordeste 0 -- -- 23
2020-01-18 17:00:00 15.3 8 Nordeste 22 Este 0 -- -- 30
2020-01-18 16:00:00 15 6 Nordeste 21 Este 0 -- -- 42
2020-01-18 15:00:00 16.4 8 Nordeste 27 Nordeste 0 -- -- 26
2020-01-18 14:00:00 15 9 Nordeste 23 Este 0 -- -- 33
2020-01-18 13:00:00 14.6 9 Este 32 Nordeste 0 -- -- 30
2020-01-18 12:00:00 13.5 15 Este 39 Este 0 -- -- 27
2020-01-18 11:00:00 13.3 10 Sudeste 33 Nordeste 0 -- -- 25
2020-01-18 10:00:00 12.3 11 Este 33 Este 0 -- -- 18
2020-01-18 09:00:00 11 12 Este 41 Este 0 -- -- 25
2020-01-18 08:00:00 10 13 Nordeste 42 Este 0 -- -- 27
2020-01-18 07:00:00 10 16 Norte 35 Este 0 -- -- 27
2020-01-18 06:00:00 10.4 13 Nordeste 39 Norte 0 -- -- 24
2020-01-18 05:00:00 10.5 12 Oeste 33 Norte 0 -- -- 23
2020-01-18 04:00:00 10.9 14 Noroeste 31 Noroeste 0 -- -- 24
2020-01-18 03:00:00 11.7 11 Oeste 28 Oeste 0 -- -- 22
2020-01-18 02:00:00 11.6 10 Oeste 29 Oeste 0 -- -- 21
2020-01-18 01:00:00 11.9 10 Sur 29 Nordeste 0 -- -- 19
2020-01-18 00:00:00 11.9 9 Nordeste 26 Norte 0 -- -- 16
2020-01-17 23:00:00 12.9 8 Sur 25 Este 0 -- -- 14
2020-01-17 22:00:00 12.6 8 Este 26 Nordeste 0 -- -- 15
2020-01-17 21:00:00 12.6 9 Nordeste 24 Sudoeste 0 -- -- 19
2020-01-17 20:00:00 12.5 6 Noroeste 19 Este 0 -- -- 19
2020-01-17 19:00:00 12.6 6 Nordeste 20 Nordeste 0 -- -- 19
2020-01-17 18:00:00 14 8 Sudeste 24 Sur 0 -- -- 17
2020-01-17 17:00:00 12.7 11 Nordeste 19 Este 0 -- -- 46
2020-01-17 16:00:00 13.4 10 Este 19 Nordeste 0 -- -- 47
2020-01-17 15:00:00 13.6 9 Este 20 Nordeste 0 -- -- 47
2020-01-17 14:00:00 13.6 8 Nordeste 24 Nordeste 0 -- -- 44
2020-01-17 13:00:00 13 8 Nordeste 19 Este 0 -- -- 42
2020-01-17 12:00:00 12.3 8 Este 32 Nordeste 0 -- -- 36
2020-01-17 11:00:00 11.3 10 Este 30 Nordeste 0 -- -- 35
2020-01-17 10:00:00 10.3 15 Este 32 Nordeste 0 -- -- 32
2020-01-17 09:00:00 9.7 12 Este 31 Este 0 -- -- 30
2020-01-17 08:00:00 9.2 10 Este 26 Este 0 -- -- 31
2020-01-17 07:00:00 9.9 10 Nordeste 23 Nordeste 0 -- -- 28
2020-01-17 06:00:00 10.3 12 Nordeste 22 Nordeste 0 -- -- 21
2020-01-17 05:00:00 10.2 9 Nordeste 21 Nordeste 0 -- -- 16
2020-01-17 04:00:00 10.1 5 Norte 23 Nordeste 0 -- -- 13
2020-01-17 03:00:00 10.5 5 Norte 21 Nordeste 0 -- -- 12
2020-01-17 02:00:00 10.7 7 Nordeste 25 Nordeste 0 -- -- 13
2020-01-17 01:00:00 9.9 11 Nordeste 18 Este 0 -- -- 22
2020-01-17 00:00:00 9.1 5 Este 20 Nordeste 0 -- -- 29
2020-01-16 23:00:00 9.2 13 Nordeste 21 Nordeste 0 -- -- 38
2020-01-16 22:00:00 8.3 14 Nordeste 18 Nordeste 0 -- -- 45
2020-01-16 21:00:00 8.1 13 Nordeste 19 Nordeste 0 -- -- 47
2020-01-16 20:00:00 8.3 7 Este 13 Nordeste 0 -- -- 52
2020-01-16 19:00:00 9 7 Este 12 Nordeste 0 -- -- 53
2020-01-16 18:00:00 10.9 8 Este 13 Este 0 -- -- 50
2020-01-16 17:00:00 11.8 9 Nordeste 16 Nordeste 0 -- -- 48
2020-01-16 16:00:00 12.4 8 Este 18 Nordeste 0 -- -- 50
2020-01-16 15:00:00 12.8 10 Nordeste 18 Nordeste 0 -- -- 55
2020-01-16 14:00:00 13.1 8 Este 17 Este 0 -- -- 49
2020-01-16 13:00:00 13 6 Nordeste 15 Este 0 -- -- 42
2020-01-16 12:00:00 12.8 5 Sudeste 14 Sudeste 0 -- -- 38
2020-01-16 11:00:00 11.6 5 Sudeste 11 Sudeste 0 -- -- 34
2020-01-16 10:00:00 8.9 6 Este 14 Este 0 -- -- 40
2020-01-16 09:00:00 7.9 8 Este 14 Este 0 -- -- 42
2020-01-16 08:00:00 7.4 8 Este 16 Este 0 -- -- 42
2020-01-16 07:00:00 7.3 6 Este 14 Este 0 -- -- 42
2020-01-16 06:00:00 7.4 7 Este 12 Nordeste 0 -- -- 41
2020-01-16 05:00:00 7.5 4 Sudeste 9 Sudeste 0 -- -- 40
2020-01-16 04:00:00 7.9 6 Sur 17 Nordeste 0 -- -- 40
2020-01-16 03:00:00 8 5 Sur 12 Sudeste 0 -- -- 40
2020-01-16 02:00:00 7.9 5 Sudeste 14 Nordeste 0 -- -- 40
2020-01-16 01:00:00 8.2 5 Sudeste 15 Sur 0 -- -- 39
2020-01-16 00:00:00 8.3 5 Sudeste 21 Sudeste 0 -- -- 38
2020-01-15 23:00:00 8.2 8 Sur 24 Nordeste 0 -- -- 38
2020-01-15 22:00:00 8.3 11 Sudeste 23 Este 0 -- -- 39
2020-01-15 21:00:00 7.8 8 Sudeste 20 Sudeste 0 -- -- 43
2020-01-15 20:00:00 7.8 9 Este 16 Este 0 -- -- 59
2020-01-15 19:00:00 8 7 Sudeste 14 Sudeste 0 -- -- 62
2020-01-15 18:00:00 9.4 8 Este 15 Este 0 -- -- 70
2020-01-15 17:00:00 11.1 8 Este 16 Este 0 -- -- 59
2020-01-15 16:00:00 11.8 7 Este 20 Nordeste 0 -- -- 47
2020-01-15 15:00:00 12 8 Nordeste 24 Nordeste 0 -- -- 43
2020-01-15 14:00:00 11.9 7 Este 26 Norte 0 -- -- 42
2020-01-15 13:00:00 11.7 9 Norte 20 Este 0 -- -- 44
2020-01-15 12:00:00 10.9 6 Norte 23 Nordeste 0 -- -- 37
2020-01-15 11:00:00 10.2 8 Sur 27 Nordeste 0 -- -- 34
2020-01-15 10:00:00 8.9 10 Este 22 Nordeste 0 -- -- 36
2020-01-15 09:00:00 7.4 5 Sudeste 12 Sudeste 0 -- -- 40
2020-01-15 08:00:00 7 5 Sudeste 12 Sudeste 0 -- -- 41
2020-01-15 07:00:00 7.2 5 Sudeste 10 Sudeste 0 -- -- 41
2020-01-15 06:00:00 6.9 7 Sudeste 12 Sudeste 0 -- -- 43
2020-01-15 05:00:00 7.1 5 Sudeste 15 Sudeste 0 -- -- 43
2020-01-15 04:00:00 7.4 6 Sudeste 14 Este 0 -- -- 42
2020-01-15 03:00:00 7.6 6 Este 12 Nordeste 0 -- -- 42
2020-01-15 02:00:00 7.3 6 Sudeste 13 Este 0 -- -- 43
2020-01-15 01:00:00 7.5 6 Sudeste 14 Sudeste 0 -- -- 42
2020-01-15 00:00:00 7.5 6 Sudeste 15 Este 0 -- -- 42
2020-01-14 23:00:00 7.7 6 Este 16 Este 0 -- -- 41
2020-01-14 22:00:00 7.7 8 Sudeste 16 Este 0 -- -- 41
2020-01-14 21:00:00 7.5 5 Sudeste 12 Este 0 -- -- 44
2020-01-14 20:00:00 7.4 5 Sur 10 Sur 0 -- -- 52
2020-01-14 19:00:00 8 4 Sudeste 10 Oeste 0 -- -- 54
2020-01-14 18:00:00 10 5 Sur 19 Sudoeste 0 -- -- 50
2020-01-14 17:00:00 11.1 8 Sudoeste 20 Oeste 0 -- -- 45
2020-01-14 16:00:00 11.5 8 Sudoeste 20 Sudoeste 0 -- -- 43
2020-01-14 15:00:00 12 9 Sudoeste 24 Sudoeste 0 -- -- 42
2020-01-14 14:00:00 11.5 7 Oeste 26 Sudoeste 0 -- -- 43
2020-01-14 13:00:00 11.2 7 Nordeste 24 Nordeste 0 -- -- 43
2020-01-14 12:00:00 10.6 10 Nordeste 24 Este 0 -- -- 48
2020-01-14 11:00:00 10 8 Nordeste 18 Nordeste 0 -- -- 50
2020-01-14 10:00:00 8 6 Sur 14 Nordeste 0 -- -- 60
2020-01-14 09:00:00 7.6 5 Sudeste 18 Nordeste 0 -- -- 65
2020-01-14 08:00:00 7.3 6 Sur 17 Este 0 -- -- 55
2020-01-14 07:00:00 8.1 4 Sudeste 15 Nordeste 0 -- -- 45
2020-01-14 06:00:00 8.3 6 Este 15 Nordeste 0 -- -- 44
2020-01-14 05:00:00 8.5 6 Este 21 Este 0 -- -- 43
2020-01-14 04:00:00 8.9 5 Este 16 Este 0 -- -- 40
2020-01-14 03:00:00 8.3 4 Sudeste 15 Este 0 -- -- 41
2020-01-14 02:00:00 9.1 5 Sudeste 15 Nordeste 0 -- -- 39
2020-01-14 01:00:00 9.3 6 Sudeste 14 Este 0 -- -- 38
2020-01-14 00:00:00 9.2 4 Sur 11 Sur 0 -- -- 38
2020-01-13 23:00:00 9.3 4 Sudeste 14 Este 0 -- -- 37
2020-01-13 22:00:00 8.6 5 Este 12 Sur 0 -- -- 40
2020-01-13 21:00:00 8.8 5 Este 13 Este 0 -- -- 40
2020-01-13 20:00:00 8.7 6 Este 14 Nordeste 0 -- -- 41
2020-01-13 19:00:00 8.9 4 Este 13 Este 0 -- -- 47
2020-01-13 18:00:00 10.5 6 Nordeste 18 Sudoeste 0 -- -- 46
2020-01-13 17:00:00 12.1 10 Sudoeste 27 Oeste 0 -- -- 56
2020-01-13 16:00:00 12.5 7 Noroeste 21 Sudoeste 0 -- -- 52
2020-01-13 15:00:00 12.5 10 Norte 24 Norte 0 -- -- 53
2020-01-13 14:00:00 12.4 13 Sudoeste 24 Noroeste 0 -- -- 56
2020-01-13 13:00:00 11.3 8 Sudoeste 33 Oeste 0 -- -- 70
2020-01-13 12:00:00 12.1 10 Oeste 23 Oeste 0 -- -- 56
2020-01-13 11:00:00 11.8 9 Sudoeste 17 Nordeste 0 -- -- 52
2020-01-13 10:00:00 9.7 8 Sur 25 Nordeste 0 -- -- 58
2020-01-13 09:00:00 9.4 6 Sudeste 18 Este 0 -- -- 56
2020-01-13 08:00:00 8.3 8 Sur 19 Sur 0 -- -- 63
2020-01-13 07:00:00 8.3 8 Sur 27 Nordeste 0 -- -- 68
2020-01-13 06:00:00 8.7 10 Sur 23 Sudeste 0 -- -- 66
2020-01-13 05:00:00 8.5 10 Sudeste 32 Nordeste 0 -- -- 64
2020-01-13 04:00:00 8.6 11 Este 38 Nordeste 0 -- -- 55
2020-01-13 03:00:00 8.9 11 Sudeste 32 Nordeste 0 -- -- 53
2020-01-13 02:00:00 9.2 11 Sudoeste 38 Nordeste 0 -- -- 46
2020-01-13 01:00:00 9.5 10 Sudoeste 27 Sur 0 -- -- 40
2020-01-13 00:00:00 9.5 11 Sudoeste 32 Sudeste 0 -- -- 40
2020-01-12 23:00:00 9.4 10 Sudoeste 29 Este 0 -- -- 39
2020-01-12 22:00:00 10 11 Este 36 Este 0 -- -- 35
2020-01-12 21:00:00 10.4 10 Sudeste 33 Este 0 -- -- 31
2020-01-12 20:00:00 10.1 11 Sur 28 Este 0 -- -- 34
2020-01-12 19:00:00 8.7 4 Norte 14 Sudeste 0 -- -- 60
2020-01-12 18:00:00 9.7 10 Nordeste 16 Nordeste 0 -- -- 64
2020-01-12 17:00:00 10.7 10 Este 18 Este 0 -- -- 59
2020-01-12 16:00:00 11.5 9 Este 20 Este 0 -- -- 58
2020-01-12 15:00:00 11.7 10 Este 24 Este 0 -- -- 65
2020-01-12 14:00:00 12.1 9 Este 19 Este 0 -- -- 73
2020-01-12 13:00:00 12.1 10 Nordeste 18 Nordeste 0 -- -- 70
2020-01-12 12:00:00 11.7 4 Nordeste 20 Este 0 -- -- 75
2020-01-12 11:00:00 10.2 9 Nordeste 20 Este 0 -- -- 79
2020-01-12 10:00:00 6.8 4 Nordeste 12 Nordeste 0 -- -- 91
2020-01-12 09:00:00 7 6 Nordeste 12 Este 0 -- -- 91
2020-01-12 08:00:00 6.2 2 Nordeste 6 Sudoeste 0 -- -- 91
2020-01-12 07:00:00 6.6 0 Calma 6 Sudoeste 0 -- -- 85
2020-01-12 06:00:00 7.5 6 Sudeste 8 Sudeste 0 -- -- 75
2020-01-12 05:00:00 6.4 5 Este 8 Este 0 -- -- 92
2020-01-12 04:00:00 6.4 4 Sudoeste 9 Sur 0 -- -- 93
2020-01-12 03:00:00 6.6 4 Sudeste 9 Sudeste 0 -- -- 92
2020-01-12 02:00:00 6.7 3 Sudeste 12 Sur 0 -- -- 93
2020-01-12 01:00:00 6.8 5 Sur 8 Sudeste 0 -- -- 92
2020-01-12 00:00:00 7 4 Sur 12 Sudeste 0 -- -- 93
2020-01-11 23:00:00 7.3 7 Sur 10 Sur 0 -- -- 92
2020-01-11 22:00:00 7.2 4 Sur 9 Sur 0 -- -- 90
2020-01-11 21:00:00 8 0 Calma 7 Este 0 -- -- 90
2020-01-11 20:00:00 8.2 2 Nordeste 9 Sur 0 -- -- 93
2020-01-11 19:00:00 9.1 5 Sur 15 Oeste 0 -- -- 90
2020-01-11 18:00:00 10.8 6 Oeste 13 Oeste 0 -- -- 86
2020-01-11 17:00:00 10.9 6 Norte 16 Norte 0 -- -- 86
2020-01-11 16:00:00 12.3 5 Noroeste 11 Oeste 0 -- -- 81
2020-01-11 15:00:00 12.3 6 Noroeste 14 Sudoeste 0 -- -- 81
2020-01-11 14:00:00 12.8 7 Sudoeste 14 Oeste 0 -- -- 75
2020-01-11 13:00:00 13.7 6 Oeste 13 Noroeste 0 -- -- 68
2020-01-11 12:00:00 13.3 5 Oeste 12 Sudoeste 0 -- -- 68
2020-01-11 11:00:00 11.8 4 Noroeste 10 Nordeste 0 -- -- 61
2020-01-11 10:00:00 9.5 0 Calma 3 Norte 0 -- -- 43
2020-01-11 09:00:00 10.5 0 Calma 6 Sur 0 -- -- 33
2020-01-11 08:00:00 11.2 0 Calma 7 Sur 0 -- -- 25
2020-01-11 07:00:00 12.1 0 Calma 10 Este 0 -- -- 21
2020-01-11 06:00:00 12.6 6 Este 11 Nordeste 0 -- -- 19
2020-01-11 05:00:00 11.9 0 Calma 9 Sudeste 0 -- -- 21
2020-01-11 04:00:00 11.5 0 Calma 7 Sudeste 0 -- -- 26
2020-01-11 03:00:00 11.2 0 Calma 9 Nordeste 0 -- -- 30
2020-01-11 02:00:00 11.3 3 Este 9 Nordeste 0 -- -- 28
2020-01-11 01:00:00 11.4 3 Sudeste 12 Sur 0 -- -- 29
2020-01-11 00:00:00 9.4 7 Sur 11 Sur 0 -- -- 52
2020-01-10 23:00:00 11.2 7 Nordeste 17 Nordeste 0 -- -- 46
2020-01-10 22:00:00 10.9 4 Nordeste 9 Este 0 -- -- 49
2020-01-10 21:00:00 8.9 4 Sudeste 8 Sur 0 -- -- 92
2020-01-10 20:00:00 9.1 0 Calma 9 Este 0 -- -- 92
2020-01-10 19:00:00 10.2 4 Este 12 Sudoeste 0 -- -- 90
2020-01-10 18:00:00 11.9 3 Nordeste 11 Oeste 0 -- -- 84
2020-01-10 17:00:00 13.7 8 Noroeste 15 Noroeste 0 -- -- 82
2020-01-10 16:00:00 14.1 6 Oeste 13 Sudoeste 0 -- -- 73
2020-01-10 15:00:00 13.7 5 Oeste 15 Noroeste 0 -- -- 75
2020-01-10 14:00:00 15.5 8 Oeste 17 Sudoeste 0 -- -- 67
2020-01-10 13:00:00 14.8 8 Noroeste 36 Sur 0 -- -- 66
2020-01-10 12:00:00 14 6 Sudoeste 26 Oeste 0 -- -- 63
2020-01-10 11:00:00 13.7 6 Noroeste 28 Norte 0 -- -- 66
2020-01-10 10:00:00 12.1 9 Sudoeste 28 Sur 0 -- -- 70
2020-01-10 09:00:00 11.2 6 Sur 21 Sur 0 -- -- 62
2020-01-10 08:00:00 11.6 10 Este 34 Nordeste 0 -- -- 57
2020-01-10 07:00:00 13 21 Nordeste 48 Nordeste 0 -- -- 40
2020-01-10 06:00:00 9.4 6 Oeste 36 Noroeste 0 -- -- 60
2020-01-10 05:00:00 10.2 14 Norte 49 Nordeste 0 -- -- 65
2020-01-10 04:00:00 10.4 17 Nordeste 35 Oeste 0 -- -- 45
2020-01-10 03:00:00 10.8 18 Nordeste 53 Nordeste 0 -- -- 45
2020-01-10 02:00:00 9.5 9 Oeste 22 Sudoeste 0 -- -- 52
2020-01-10 01:00:00 9.6 0 Calma 26 Nordeste 0 -- -- 44
2020-01-10 00:00:00 12.1 12 Sur 62 Nordeste 0 -- -- 32
2020-01-09 23:00:00 11.8 21 Nordeste 63 Nordeste 0 -- -- 35
2020-01-09 22:00:00 9.1 8 Sur 28 Sur 0 -- -- 57
2020-01-09 21:00:00 9.4 9 Sudoeste 22 Nordeste 0 -- -- 61
2020-01-09 20:00:00 9.9 10 Sudeste 28 Nordeste 0 -- -- 65
2020-01-09 19:00:00 9.5 9 Sudoeste 21 Nordeste 0 -- -- 79
2020-01-09 18:00:00 12.5 4 Nordeste 12 Nordeste 0 -- -- 52
2020-01-09 17:00:00 14.3 4 Noroeste 17 Sur 0 -- -- 58
2020-01-09 16:00:00 14.4 9 Sudoeste 18 Sudoeste 0 -- -- 60
2020-01-09 15:00:00 13.8 9 Oeste 19 Oeste 0 -- -- 63
2020-01-09 14:00:00 13.3 9 Oeste 17 Noroeste 0 -- -- 63
2020-01-09 13:00:00 13 6 Oeste 17 Oeste 0 -- -- 61
2020-01-09 12:00:00 12.2 5 Oeste 11 Oeste 0 -- -- 59
2020-01-09 11:00:00 10.5 4 Sur 10 Sur 0 -- -- 64
2020-01-09 10:00:00 7.3 5 Sudeste 10 Sur 0 -- -- 73
2020-01-09 09:00:00 6.7 3 Sudeste 17 Sur 0 -- -- 73
2020-01-09 08:00:00 6.6 5 Oeste 12 Sudeste 0 -- -- 72
2020-01-09 07:00:00 6.3 4 Sur 12 Sur 0 -- -- 71
2020-01-09 06:00:00 6.7 4 Sur 10 Sudoeste 0 -- -- 67
2020-01-09 05:00:00 8.4 8 Este 27 Este 0 -- -- 65
2020-01-09 04:00:00 8.5 14 Sudeste 34 Este 0 -- -- 68
2020-01-09 03:00:00 7.9 5 Sudeste 28 Sudeste 0 -- -- 72
2020-01-09 02:00:00 7.9 8 Este 28 Nordeste 0 -- -- 64
2020-01-09 01:00:00 8.2 9 Nordeste 33 Nordeste 0 -- -- 67
2020-01-09 00:00:00 9.2 14 Norte 43 Nordeste 0 -- -- 64
2020-01-08 23:00:00 8.6 16 Norte 37 Norte 0 -- -- 67
2020-01-08 22:00:00 8.4 11 Norte 40 Norte 0 -- -- 59
2020-01-08 21:00:00 8.3 5 Sudeste 39 Norte 0 -- -- 65
2020-01-08 20:00:00 8.7 15 Nordeste 38 Nordeste 0 -- -- 65
2020-01-08 19:00:00 9.2 14 Norte 30 Norte 0 -- -- 72
2020-01-08 18:00:00 10.7 4 Nordeste 19 Norte 0 -- -- 58
2020-01-08 17:00:00 11.2 11 Nordeste 21 Nordeste 0 -- -- 46
2020-01-08 16:00:00 11.7 5 Norte 28 Nordeste 0 -- -- 49
2020-01-08 15:00:00 11.9 14 Norte 32 Noroeste 0 -- -- 57
2020-01-08 14:00:00 11.8 10 Norte 22 Norte 0 -- -- 49
2020-01-08 13:00:00 11.1 10 Este 25 Este 0 -- -- 62
2020-01-08 12:00:00 10.9 7 Noroeste 18 Nordeste 0 -- -- 64
2020-01-08 11:00:00 9.3 4 Nordeste 19 Norte 0 -- -- 74
2020-01-08 10:00:00 9 11 Nordeste 33 Sudeste 0 -- -- 70
2020-01-08 09:00:00 8.1 10 Norte 24 Nordeste 0 -- -- 57
2020-01-08 08:00:00 7.7 9 Norte 23 Norte 0 -- -- 70
2020-01-08 07:00:00 7.6 7 Noroeste 27 Norte 0 -- -- 70
2020-01-08 06:00:00 7.5 8 Noroeste 27 Norte 0 -- -- 70
2020-01-08 05:00:00 7.8 10 Norte 23 Nordeste 0 -- -- 69
2020-01-08 04:00:00 8 10 Norte 25 Norte 0 -- -- 70
2020-01-08 03:00:00 7.9 10 Norte 34 Norte 0 -- -- 67
2020-01-08 02:00:00 8.1 8 Este 23 Este 0 -- -- 66
2020-01-08 01:00:00 7.9 7 Sudeste 36 Norte 0 -- -- 61
2020-01-08 00:00:00 7.6 10 Norte 27 Norte 0 -- -- 63
2020-01-07 23:00:00 8.1 7 Noroeste 30 Norte 0 -- -- 58
2020-01-07 22:00:00 8.4 7 Noroeste 28 Norte 0 -- -- 61
2020-01-07 21:00:00 8.8 9 Norte 28 Noroeste 0 -- -- 63
2020-01-07 20:00:00 8.1 6 Sudeste 17 Este 0 -- -- 60
2020-01-07 19:00:00 8.3 3 Sur 14 Sur 0 -- -- 56
2020-01-07 18:00:00 10.4 3 Norte 14 Este 0 -- -- 33
2020-01-07 17:00:00 11.3 8 Sudoeste 22 Oeste 0 -- -- 30
2020-01-07 16:00:00 10.9 8 Noroeste 22 Oeste 0 -- -- 38
2020-01-07 15:00:00 10.9 9 Este 28 Este 0 -- -- 33
2020-01-07 14:00:00 11.1 10 Sur 35 Norte 0 -- -- 54
2020-01-07 13:00:00 11 12 Oeste 33 Noroeste 0 -- -- 54
2020-01-07 12:00:00 9.9 9 Oeste 28 Noroeste 0 -- -- 65
2020-01-07 11:00:00 9.6 12 Oeste 34 Noroeste 0 -- -- 64
2020-01-07 10:00:00 8.2 11 Noroeste 35 Norte 0 -- -- 76
2020-01-07 09:00:00 7.6 15 Norte 34 Noroeste 0 -- -- 80
2020-01-07 08:00:00 7.4 10 Norte 29 Norte 0 -- -- 76
2020-01-07 07:00:00 7.7 7 Noroeste 25 Nordeste 0 -- -- 82
2020-01-07 06:00:00 7.6 5 Sudoeste 27 Oeste 0 -- -- 83
2020-01-07 05:00:00 8.2 9 Noroeste 30 Nordeste 0 -- -- 80
2020-01-07 04:00:00 8.1 8 Oeste 30 Sur 0 -- -- 71
2020-01-07 03:00:00 8.1 12 Sur 27 Noroeste 0 -- -- 83
2020-01-07 02:00:00 8.4 11 Noroeste 36 Norte 0.2 -- -- 82
2020-01-07 01:00:00 8.6 14 Noroeste 41 Norte 0 -- -- 77
2020-01-07 00:00:00 8.2 10 Noroeste 27 Noroeste 0 -- -- 75
2020-01-06 23:00:00 8.3 6 Oeste 32 Noroeste 0 -- -- 83
2020-01-06 22:00:00 8.5 9 Norte 26 Sudeste 0 -- -- 82
2020-01-06 21:00:00 8.9 6 Sur 30 Noroeste 0 -- -- 82
2020-01-06 20:00:00 9 9 Oeste 37 Este 0 -- -- 75
2020-01-06 19:00:00 8.9 14 Nordeste 44 Noroeste 0 -- -- 74
2020-01-06 18:00:00 9.6 18 Nordeste 49 Nordeste 0 -- -- 67
2020-01-06 17:00:00 12.4 8 Noroeste 32 Nordeste 0 -- -- 57
2020-01-06 16:00:00 12.8 6 Oeste 31 Norte 0 -- -- 53
2020-01-06 15:00:00 12.9 10 Oeste 24 Noroeste 0 -- -- 53
2020-01-06 14:00:00 13.4 6 Oeste 17 Sudoeste 0 -- -- 57
2020-01-06 13:00:00 12.3 7 Sudoeste 19 Oeste 0 -- -- 64
2020-01-06 12:00:00 12.2 5 Oeste 18 Sur 0 -- -- 60
2020-01-06 11:00:00 11.2 8 Sur 21 Sur 0 -- -- 66
2020-01-06 10:00:00 8.5 10 Sur 29 Sudoeste 0 -- -- 74
2020-01-06 09:00:00 7.8 12 Noroeste 31 Norte 0 -- -- 76